Weather Roundup
Issued by NWS

Home | Current Version | Previous Version | Graphics & Text | Print | Product List | Glossary Off
Versions: 1 2 3 4 5 6 7 8 9 10 11 12 13 14 15 16 17 18 19 20 21 22 23 24 25 26 27 28 29 30 31 32 33 34 35 36 37 38 39 40 41 42 43 44 45 46 47 48 49 50

857
NZUS93 KARX 190610
HRRWXR

CURRENT HOURLY OBSERVATIONS ACROSS
MUCH OF THE UPPER MISSISSIPPI VALLEY
NATIONAL WEATHER SERVICE LA CROSSE WI
1200 AM CST THU JAN 19 2017


...SOUTHEAST MINNESOTA...


CITY           SKY/WX    TMP DP  RH WIND       PRES   REMARKS
ROCHESTER      CLEAR     33  32  96 S9        29.87F WCI  25
ROCHESTER/MAYO FAIR      34  34 100 S7        29.88S WCI  28
WINONA         MOCLDY    36  34  93 SE5       29.92S WCI  32
AUSTIN         CLEAR     32  30  93 S9        29.87F WCI  24
ALBERT LEA     CLEAR     36  34  93 S7        29.86S WCI  30
DODGE CENTER   CLEAR     32  30  93 S9        29.86S WCI  24
PRESTON        CLEAR     32  32  98 S17       29.89F WCI  21
OWATONNA       CLEAR     34  30  86 S14       29.85S WCI  24
FARIBAULT      CLEAR     34  30  86 S6        29.85S WCI  29
$$

...ELSEWHERE IN MINNESOTA...


CITY           SKY/WX    TMP DP  RH WIND       PRES   REMARKS
MINNEAPOLIS    CLOUDY    30  28  92 SE6       29.83F WCI  24
INTNL FALLS    CLOUDY    27  21  78 SE3       29.67F
DULUTH         CLOUDY    33  29  85 SW9       29.76F WCI  25
RED WING       CLOUDY    30  28  93 E3        29.86F FOG
REDWOOD FALLS  CLOUDY    35  32  88 S9        29.77S WCI  28
MANKATO        CLEAR     35  33  92 S8        29.83S WCI  29
WORTHINGTON    CLEAR     38  34  85 S20       29.78F WCI  28
FAIRMONT       CLEAR     34  33  96 S12       29.83F WCI  25
$$

...SOUTHWEST WISCONSIN...


CITY           SKY/WX    TMP DP  RH WIND       PRES   REMARKS
LA CROSSE      CLOUDY    37  34  89 SE9       29.93F FOG     WCI  30
PRAIRIE DU CHI CLEAR     33  32  94 CALM      29.96S FOG
BOSCOBEL       CLOUDY    37  34  89 S6        29.96F WCI  32
LONE ROCK      CLOUDY    35  33  92 CALM      29.98F FOG
PLATTEVILLE    CLEAR     32  32 100 S9        29.98S WCI  25
FORT MC COY    CLOUDY    33  33  98 SW5       29.94F FOG     WCI  29
CAMP DOUGLAS   CLOUDY    34  32  92 SW3       29.93S
MAUSTON-NEW LI CLOUDY    34  32  94 S5        29.93F FOG     WCI  30
VIROQUA        CLOUDY    33  33 100 S7        29.93F VSB 1/2 WCI  27
WIS DELLS      FOG       33  32  96 SW10      29.95F VSB 1   WCI  25
$$

...ELSEWHERE IN WISCONSIN...


CITY           SKY/WX    TMP DP  RH WIND       PRES   REMARKS
MILWAUKEE      CLOUDY    34  30  85 W8        30.00F FOG     WCI  27
MADISON        CLOUDY    33  32  96 SW5       29.99F FOG     WCI  29
GREEN BAY      CLOUDY    34  31  88 SW6       29.93S WCI  29
EAU CLAIRE     FOG       24  23  96 S5        29.87F VSB 1/2 WCI  18
BLACK RVR FLS  CLOUDY    32  32 100 CALM      29.92S FOG
MEDFORD        CLOUDY    28  27  99 S7        29.87S FOG     WCI  20
WAUSAU         CLOUDY    28  27  96 SW3       29.89S FOG
WIS RAPIDS     CLOUDY    29  29 100 S7        29.93F FOG     WCI  22
MARSHFIELD     CLOUDY    28  26  92 SW5       29.89F FOG     WCI  23
RICE LAKE      FOG       28  28  99 SE3       29.87S VSB 1
$$

...NORTHEAST IOWA...


CITY           SKY/WX    TMP DP  RH WIND       PRES   REMARKS
WATERLOO       CLEAR     32  31  96 S7        29.94S WCI  26
DUBUQUE        FOG       32  32 100 S13       29.97S VSB 3/4 WCI  22
DECORAH        CLEAR     34  34 100 S8        29.91F WCI  27
MASON CITY     CLEAR     32  30  92 S7        29.89F WCI  26
CHARLES CITY   CLEAR     32  32 100 S13       29.91F FOG     WCI  22
OELWEIN        CLOUDY    32  32 100 S10       29.95R FOG     WCI  24
$$

...ELSEWHERE IN IOWA...


CITY           SKY/WX    TMP DP  RH WIND       PRES   REMARKS
DES MOINES     FOG       36  35  96 S12       29.95S VSB 1/2 WCI  28
IOWA CITY      FOG       33  33 100 SE3       30.01F VSB 1/4
FORT DODGE     CLEAR     36  30  80 S9        29.89F WCI  29
MARSHALLTOWN   FOG       32  32 100 S12       29.94S VSB 3/4 WCI  23
CEDAR RAPIDS   FOG       32  32 100 S10       29.97S VSB 1/4 WCI  24
$$

...NORTHERN ILLINOIS...


CITY           SKY/WX    TMP DP  RH WIND       PRES   REMARKS
CHICAGO-OHARE  CLOUDY    30  29  96 S5        30.03F FOG     WCI  25
CHICAGO-MIDWAY CLOUDY    33  30  88 S8        30.05F FOG     WCI  26
MOLINE         CLEAR     27  26  96 CALM      30.01F FOG
ROCKFORD       CLEAR     30  28  92 S6        30.04S FOG     WCI  24
PEORIA         CLOUDY    33  32  96 S5        30.05F FOG     WCI  29
$$

NOTE: "FAIR" INDICATES FEW OR NO CLOUDS BELOW 12,000 FEET WITH NO
SIGNIFICANT WEATHER AND/OR OBSTRUCTIONS TO VISIBILITY. WIND
SPEEDS ARE IN MILES-PER-HOUR.




USA.gov is the U.S. government's official web portal to all federal, state and local government web resources and services.